This demonstration page uses our WeatherBlox Daily Observations layout. Learn more.

Left ArrowRight Arrow

53.62937, 11.41316

Hourly Observations for April 23, 2015

Temp ( °F °C ) Dew Point ( °F °C ) Humidity (%) Winds ( mph kmh ) Pressure ( in mb ) Visibility ( mi km ) Precip ( " mm )
6:20 am 06:20 Mostly Sunny 37 3 37 3 100 100 WSW 8 13 30.09 1019 3 5 N/A
6:50 am 06:50 Partly Cloudy with Mist and Fog 37 3 36 2 93 93 WSW 7 11 30.09 1019 3 5 N/A
7:20 am 07:20 Cloudy with Fog 39 4 37 3 93 93 W 8 13 30.09 1019 0 1 N/A
7:50 am 07:50 Cloudy with Fog 39 4 39 4 100 100 WSW 10 17 30.09 1019 0 1 N/A
8:20 am 08:20 Cloudy with Fog 39 4 39 4 100 100 WSW 10 17 30.09 1019 1 1 N/A
8:50 am 08:50 Cloudy with Mist and Fog 41 5 41 5 100 100 WSW 12 19 30.09 1019 1 2 N/A
9:20 am 09:20 Cloudy with Mist and Fog 43 6 43 6 100 100 W 13 20 30.09 1019 2 3 N/A
9:50 am 09:50 Cloudy with Mist and Fog 45 7 43 6 93 93 W 9 15 30.09 1019 3 4 N/A
10:20 am 10:20 Cloudy 45 7 41 5 87 87 W 10 17 30.09 1019 5 8 N/A
10:50 am 10:50 Cloudy 46 8 41 5 82 82 W 12 19 30.09 1019 30 48 N/A
11:20 am 11:20 Mostly Cloudy 46 8 41 5 82 82 WSW 14 22 30.09 1019 30 48 N/A
11:50 am 11:50 Mostly Cloudy 48 9 41 5 76 76 W 13 20 30.09 1019 30 48 N/A
12:20 pm 12:20 Partly Cloudy 48 9 41 5 76 76 WSW 12 19 30.09 1019 30 48 N/A
12:50 pm 12:50 Mostly Sunny 52 11 43 6 72 72 W 12 19 30.06 1018 30 48 N/A
1:20 pm 13:20 Mostly Sunny 52 11 43 6 72 72 WSW 12 19 30.06 1018 7 11 N/A
1:50 pm 13:50 Mostly Sunny 54 12 45 7 72 72 W 10 17 30.06 1018 7 11 N/A
2:20 pm 14:20 Mostly Sunny 54 12 43 6 67 67 W 10 17 30.03 1017 7 11 N/A
2:50 pm 14:50 Mostly Sunny 55 13 43 6 63 63 WSW 12 19 30.03 1017 7 11 N/A
3:20 pm 15:20 Mostly Sunny 57 14 43 6 59 59 W 9 15 30.03 1017 7 11 N/A
3:50 pm 15:50 Mostly Sunny 59 15 45 7 59 59 WSW 12 19 30.00 1016 7 11 N/A
4:20 pm 16:20 Mostly Sunny 59 15 45 7 59 59 WSW 10 17 30.00 1016 7 11 N/A
4:50 pm 16:50 Mostly Sunny 61 16 46 8 59 59 WSW 10 17 30.00 1016 7 11 N/A
5:20 pm 17:20 Mostly Sunny 61 16 46 8 59 59 WSW 10 17 29.97 1015 7 11 N/A
5:50 pm 17:50 Mostly Sunny 61 16 45 7 55 55 W 8 13 29.97 1015 7 11 N/A
6:20 pm 18:20 Mostly Sunny 61 16 45 7 55 55 WNW 9 15 29.97 1015 7 11 N/A
6:50 pm 18:50 Mostly Sunny 61 16 46 8 59 59 W 9 15 29.97 1015 7 11 N/A

Powered by AerisWeather